Location: Proctor
(47.8934°N, 114.3048°W)
Time: 14:28:26
(UTC+00:00)

POLYITAN 1 - Pass Details

Date: 04 July 2022
Orbit: 586 x 605 km, 98.0° (Epoch: 18 August)

Event Time Altitude Azimuth Distance (km) Brightness Sun altitude
Rises 08:13:35 0° 31° (NNE) 2,865 ? -18.9°
Reaches altitude 10° 08:16:42 10° 56° (NE) 1,958 ? -18.8°
Maximum altitude 08:19:03 14° 90° (E) 1,683 ? -18.7°
Enters shadow 08:21:14 10° 121° (ESE) 1,923 ? -18.7°
